コワル-リニア彗星

158P/Kowal-LINEAR (2012)

English version
Home page
Updated on July 6, 2017

---------------------------------------------------------------------

・ プロフィール

・ 写真集

・ 軌道要素

Epoch 2012 Sept. 30.0 TT = JDT 2456200.5
T 2012 Sept. 27.47405 TT                                MPCW
q   4.5764196            (2000.0)            P               Q
n   0.09607374     Peri.  232.84880     +0.97920053     -0.18017700
a   4.7213506      Node   137.30454     +0.20024295     +0.93229001
e   0.0306969      Incl.    7.90735     -0.03269674     +0.31364245
P  10.26
From 567 observations 1979 July 24-2016 May 2, mean residual 0".6.

・ 光度変化

        m1 = 9.0 + 5 logΔ + 10.0 log r

---------------------------------------------------------------------

軌道要素はM.P.E.C. 2016-K18に掲載されたものです。
光度グラフはComet for Windowsで作成したものです。

---------------------------------------------------------------------

Copyright(C) Seiichi Yoshida (comet@aerith.net). All rights reserved.